Location: ?????????
(54.7630°N, 39.4991°E)
Time: 21:43:56
(UTC+00:00)

Cosmos 614 Rocket - Pass Details

Date: 14 April 2026
Orbit: 728 x 757 km, 74.1° (Epoch: 12 May)

Event Time Altitude Azimuth Distance (km) Brightness Sun altitude
Rises 17:51:51 0° 333° (NNW) 3,224 8.5 -12.1°
Reaches altitude 10° 17:54:15 10° 335° (NNW) 2,293 7.5 -12.4°
Maximum altitude 17:59:27 75° 61° (ENE) 783 4.0 -12.9°
Enters shadow 18:03:14 19° 145° (SE) 1,751 5.3 -13.4°
